Location: Bonnesvalyn
(49.1218°N, 3.3177°E)
Time: 23:10:23
(UTC+00:00)

Cosmos 1340 - Pass Details

Date: 09 February 2023
Orbit: 478 x 482 km, 81.2° (Epoch: 01 April)

Event Time Altitude Azimuth Distance (km) Brightness Sun altitude
Rises 17:42:18 0° 349° (N) 2,560 6.2 -8.0°
Reaches altitude 10° 17:44:25 10° 351° (N) 1,677 5.3 -8.3°
Maximum altitude 17:48:05 78° 78° (ENE) 504 2.5 -8.9°
Drops below altitude 10° 17:51:45 10° 165° (SSE) 1,671 5.3 -9.5°
Sets 17:53:51 0° 167° (SSE) 2,549 6.2 -9.8°
